Regional Weather Roundup
Issued by NWS

Home | Current Version | Previous Version | Graphics & Text | Print | Product List | Glossary On
Versions: 1 2 3 4 5 6 7 8 9 10 11 12 13 14 15 16 17 18 19 20 21 22 23 24 25 26 27 28 29 30 31 32 33 34 35 36 37 38 39 40 41 42 43 44 45 46 47 48 49 50
000
ASUS43 KMPX 311410
RWRMN
WEATHER ROUNDUP FOR MINNESOTA
NATIONAL WEATHER SERVICE TWIN CITIES/CHANHASSEN MN
900 AM CDT MON AUG 31 2015


NOTE: "FAIR" INDICATES FEW OR NO CLOUDS BELOW 12,000 FEET WITH NO
SIGNIFICANT WEATHER AND/OR OBSTRUCTIONS TO VISIBILITY. N/A MEANS
CURRENT SKY AND/OR WEATHER CONDITIONS ARE NOT AVAILABLE.

MNZ060>063-068>070-311500-
   Twin Cities Metro

CITY           SKY/WX    TMP DP  RH WIND       PRES   REMARKS
TWIN CITIES    MOSUNNY   71  66  84 S9        29.94R
ST PAUL        MOSUNNY   70  67  90 S14       29.94S
CRYSTAL        PTSUNNY   71  67  87 S10       29.91S
BLAINE         PTSUNNY   72  70  94 S10       29.93R FOG
LAKEVILLE      CLOUDY    66  66 100 S8        29.95R FOG
EDEN PRAIRIE   MOSUNNY   71  67  87 S8        29.92S FOG
SOUTH ST PAUL  MOSUNNY   70  66  89 SE7       29.94S FOG
LAKE ELMO      CLOUDY    70  68  94 S9        29.96S FOG
$$
MNZ001>005-007-008-013>017-022>024-027-028-311500-
   Northwest Minnesota

CITY           SKY/WX    TMP DP  RH WIND       PRES   REMARKS
BEMIDJI        MOSUNNY   69  58  68 S12G18    29.76R
HALLOCK        CLOUDY    68  64  88 S6        29.64F
ROSEAU         PTSUNNY   70  63  78 SW10      29.69R
WARROAD        PTSUNNY   70  63  78 SW13G21   29.70R
THIEF RVR FALL MOSUNNY  N/A N/A N/A S13G20    29.68F
CROOKSTON      MOSUNNY   70  61  73 S16G22    29.68F
FOSSTON        MOSUNNY   70  57  64 S14G20    29.72S
DETROIT LAKES  SUNNY     72  57  60 S14       29.77S
MOORHEAD       SUNNY     70  61  73 S14       29.71S
PARK RAPIDS    SUNNY     69  59  70 S14       29.79S
MAHNOMEN       FAIR      70  59  67 S12       29.73R
$$
MNZ006-009>011-018-025>026-311500-
   North Central Minnesota

CITY           SKY/WX    TMP DP  RH WIND       PRES   REMARKS
BAUDETTE       PTSUNNY   68  60  75 S9        29.70S
FLAG ISLAND    CLOUDY    68  63  83 S9        29.68R
INTL FALLS     MOSUNNY   68  61  78 VRB6      29.75R
WASKISH        MOSUNNY   70  61  73 S8        29.73S
BIG FORK       SUNNY     70  61  73 S13       29.78F
LONGVILLE      SUNNY     66  63  88 S10G17    29.81S
GRAND RAPIDS     N/A     64  61  88 S15G21    29.83F
CRANE LAKE     SUNNY     64  61  88 S8        29.81S
ORR            SUNNY     64  57  77 S9        29.79S
COOK           SUNNY     66  61  82 S7        29.83S
WALKER         FAIR      69  58  69 S10G20    29.77F
$$
MNZ012-019>021-037-311500-
   Northeast Minnesota

CITY           SKY/WX    TMP DP  RH WIND       PRES   REMARKS
DULUTH         MOSUNNY   66  62  87 SW17      29.89S
ELY            SUNNY     68  57  68 S8        29.85S
HIBBING        MOSUNNY   64  61  90 VRB6      29.86S
EVELETH        SUNNY     63  63 100 S3        29.87S
DULUTH HARBOR  SUNNY     66  64  94 SW5       29.89R
TWO HARBORS    PTSUNNY   70  64  83 S10       29.88S
SILVER BAY     MOSUNNY   68  63  83 SW10      29.87F
GRAND MARAIS     N/A     57  56  96 SW3       29.89S
G MARAIS ARPRT CLOUDY    63  59  88 S9        29.93S FOG
$$
MNZ029>031-032-039>041-046>048-054>057-064-311500-
   West Central Minnesota

CITY           SKY/WX    TMP DP  RH WIND       PRES   REMARKS
FERGUS FALLS   SUNNY     70  61  73 S13       29.76R
WHEATON        SUNNY     66  61  82 S12G20    29.75S
MORRIS         SUNNY     68  64  88 S18       29.77F FOG
ALEXANDRIA     SUNNY     68  63  84 S16       29.83F
ELBOW LAKE     FAIR      68  62  79 S18G25    29.77R
WADENA         SUNNY     66  61  82 S16       29.77F
GLENWOOD       SUNNY     66  64  94 S13       29.85S FOG
APPLETON       SUNNY     70  64  83 S13       29.79F
BENSON         SUNNY     66  63  88 S10       29.82S FOG
ORTONVILLE     SUNNY     66  63  88 S8        29.77S
MADISON        SUNNY     70  64  83 S10G17    29.80F
WILLMAR        FAIR      68  66  94 S6        29.88R FOG
$$
MNZ033>034-036-042>043-049>051-058-059-311500-
   Central Minnesota

CITY           SKY/WX    TMP DP  RH WIND       PRES   REMARKS
ST CLOUD       MOSUNNY   67  65  93 S12       29.88S
SAUK CENTRE    FAIR      66  64  93 S10       29.85S FOG
PAYNESVILLE    SUNNY     67  65  93 SE7       29.88R
AITKIN         MOSUNNY   68  63  83 S10G18    29.85R
PINE RIVER     SUNNY     66  64  94 S9G18     29.85F FOG
BRAINERD       MOSUNNY   67  64  90 S13       29.86R FOG
STAPLES        SUNNY     66  63  88 S14       29.82S
LONG PRAIRIE   PTSUNNY   64  63  94 S15       29.85S FOG
LITTLE FALLS   SUNNY     64  63  94 S6        29.87R FOG
LITCHFIELD     SUNNY     70  68  94 S6        29.89S
BUFFALO        PTSUNNY   69  65  86 S8        29.92R
MAPLE LAKE     CLOUDY    68  67  96 S6        29.91R FOG
$$
MNZ037-044-045-052-053-311500-
   East Central Minnesota

CITY           SKY/WX    TMP DP  RH WIND       PRES   REMARKS
PRINCETON      PTSUNNY   70  66  88 S8        29.91R
MORA           CLOUDY    66  63  88 S10       29.92S
CAMBRIDGE      CLOUDY    70  61  73 S9        29.90S HAZE
RUSH CITY      CLOUDY    67  65  93 S6        29.93R
MOOSE LAKE     CLOUDY    68  63  83 S9G17     29.88R
HINCKLEY       CLOUDY    68  66  94 S10       29.92R
CLOQUET        CLOUDY    66  63  88 S10G18    29.89S
MCGREGOR       SUNNY     64  63  94 S13       29.88R
$$
MNZ071>073-080-081-089-090-097-098-311500-
   Southwest Minnesota

CITY           SKY/WX    TMP DP  RH WIND       PRES   REMARKS
MONTEVIDEO     SUNNY     70  70 100 SW12      29.85S
GRANITE FALLS  SUNNY     68  67  94 S9        29.87R
CANBY          SUNNY     70  64  79 S14G26    29.82S
MARSHALL       SUNNY     70  63  78 SW22G31   29.87R
REDWOOD FALLS  SUNNY     69  66  90 S12       29.88S
OLIVIA         SUNNY     64  63  94 S8        29.88R FOG
PIPESTONE      SUNNY     68  66  94 S15       29.91S FOG
WINDOM         SUNNY     70  66  88 S14G20    29.92F FOG
WORTHINGTON    CLOUDY    66  63  88 S15G21    29.93S
JACKSON        SUNNY     68  68 100 S14       29.95S FOG
TRACY          SUNNY     70  67  90 S20       29.89R FOG
SLAYTON        CLOUDY    67  67  99 S13G18    29.93R FOG
$$
MNZ065>067-074>077-082>085-091>093-311500-
   South Central Minnesota

CITY           SKY/WX    TMP DP  RH WIND       PRES   REMARKS
MANKATO        CLOUDY    68  64  88 S14G20    29.95R
NEW ULM        SUNNY     68  66  94 S13       29.91F FOG
ST JAMES       PTSUNNY   70  68  94 S12G17    29.94S FOG
FAIRMONT       CLOUDY    66  63  88 S12       29.95S
GLENCOE        SUNNY     69  68  97 S8        29.91S FOG
FARIBAULT      CLOUDY    68  66  94 S7        29.96S FOG
OWATONNA       CLOUDY    68  66  94 S10       29.97S FOG
WASECA         CLOUDY    68  64  88 S9        29.98S FOG
ALBERT LEA     CLOUDY    66  66 100 S9        29.98S FOG
$$
MNZ078>079-086>088-094>096-311500-
   Southeast Minnesota

CITY           SKY/WX    TMP DP  RH WIND       PRES   REMARKS
ROCHESTER      CLOUDY    67  66  97 S14       30.01S FOG
RED WING       CLOUDY    70  66  88 S7        29.96S
STANTON        CLOUDY    69  66  90 S6        29.95S FOG
DODGE CENTER   CLOUDY    66  66 100 S9        29.99S FOG
WINONA         CLOUDY    70  68  94 CALM      30.00S FOG
AUSTIN           N/A    N/A N/A N/A S8        30.00
PRESTON        CLOUDY    65  64  96 S12       30.02S FOG
$$
ABBREVIATIONS USED IN REMARKS
   TC - TEMPERATURES IN CELSIUS
  WCI - WIND CHILL INDEX
   HX - HEAT INDEX
  VSB - VISIBILITY
$$


USA.gov is the U.S. government's official web portal to all federal, state and local government web resources and services.